Content
SEND FEEDBACK

Daily
Averages
Monthly
Summary
United States of America

TETON VILLAGE, WYOMING


Home > North America > United States > Wyoming
Elevation: 6670 feet     Latitude: 43 40N     Longitude: 110 43W

WEATHER
 
SELECT A DAY
Number of Records: 376,273;   Date Range: 1/1/95 - 7/7/14
 
SHARE

PRINT THIS DATA

[ ← Previous Day ]
WEATHER ALMANAC - FEBRUARY 13, 2013
[ Next Day → ]
[ °C ]   °F
Weather ElementAverageHighLow
Temperature24.8 °F28.4 °F (11:57 am)17.6 °F (12:35 am)
Dewpoint22.2 °F26.6 °F (10:55 pm)15.8 °F (12:55 am)
Humidity90.2 %100 % (12:35 am)86 % (5:15 am)
Barometer30.11 in30.17 in (12:35 am)30.06 in (8:55 pm)
Wind Speed11 mph18.4 mph (4:35 am)
Wind Gust24.2 mph (6:35 am)
Weather ElementAverage
Visibility4.6 mi
Wind DirectionSSW (189 °)

Weather ElementTotal
Precipitation---
Heating Degree Days42 (Base 65)
Averaged from 40 records on February 13, 2013
WEATHER CONDITIONS BREAKOUT
WIND DIRECTION BREAKOUT
WEATHER BY HOUR - FEBRUARY 13, 2013
[ °C ]   °F
Local TimeTemperatureDewpointHumidityBarometerVisibilityWind DirectionWind SpeedGust SpeedPrecipitationEventsConditions
12:35 AM17.6 °F17.6 °F100 %30.17 in2.5 miNNW (340°)6.9 mphOvercast
12:55 AM17.6 °F15.8 °F93 %30.16 in2.0 miCalmOvercast
1:15 AM19.4 °F17.6 °F93 %30.16 in2.5 miNorth (350°)8.1 mphOvercast
1:35 AM19.4 °F17.6 °F93 %30.16 in2.0 miNorth (360°)6.9 mphOvercast
1:55 AM19.4 °F17.6 °F93 %30.15 in2.5 miNNE (30°)4.6 mphOvercast
2:35 AM17.6 °F15.8 °F93 %30.16 in2.0 miNorth (350°)5.8 mphOvercast
2:55 AM19.4 °F17.6 °F93 %30.17 in1.8 miNorth (10°)5.8 mphOvercast
3:15 AM19.4 °F17.6 °F93 %30.16 in1.0 miNorth (10°)4.6 mphOvercast
3:35 AM19.4 °F19.4 °F100 %30.15 in1.0 miNorth (360°)4.6 mphOvercast
3:55 AM19.4 °F19.4 °F100 %30.14 in1.8 miNW (310°)3.5 mphOvercast
4:15 AM21.2 °F21.2 °F100 %30.13 in2.0 miSSW (200°)10.4 mphOvercast
4:35 AM24.8 °F23.0 °F93 %30.11 in3.0 miSouth (180°)18.4 mphOvercast
4:55 AM24.8 °F23.0 °F93 %30.11 in4.0 miSW (230°)9.2 mphOvercast
5:15 AM24.8 °F21.2 °F86 %30.11 in6.0 miSouth (190°)11.5 mphOvercast
5:35 AM24.8 °F21.2 °F86 %30.11 in8.0 miSouth (180°)15.0 mphOvercast
5:55 AM24.8 °F21.2 °F86 %30.11 in10.0 miSW (230°)4.6 mphOvercast
6:15 AM24.8 °F21.2 °F86 %30.10 in10.0 miSSW (200°)13.8 mphOvercast
6:35 AM24.8 °F21.2 °F86 %30.10 in8.0 miSouth (190°)17.3 mph24.2 mphOvercast
7:53 AM24.8 °F21.2 °F86 %30.09 in10.0 miSouth (190°)6.9 mphOvercast
8:51 AM24.8 °F21.2 °F86 %30.11 in1.5 miSouth (170°)15.0 mphSnowLight Snow
9:05 AM24.8 °F23.0 °F93 %30.11 in3.0 miSouth (170°)16.1 mph21.9 mphSnowLight Snow
9:51 AM26.6 °F23.0 °F86 %30.11 in4.0 miSouth (170°)16.1 mphSnowLight Snow
10:51 AM26.6 °F24.8 °F93 %30.12 in2.0 miSouth (180°)13.8 mphSnowLight Snow
11:57 AM28.4 °F24.8 °F86 %30.10 in5.0 miSouth (170°)17.3 mphSnowLight Snow
12:57 PM28.4 °F24.8 °F86 %30.10 in7.0 miSouth (170°)12.7 mphSnowLight Snow
1:51 PM28.4 °F24.8 °F86 %30.09 in7.0 miSouth (170°)11.5 mph17.3 mphOvercast
3:07 PM28.4 °F24.8 °F86 %30.09 in5.0 miSouth (170°)11.5 mphSnowLight Snow
3:54 PM28.4 °F24.8 °F86 %30.09 in8.0 miSouth (170°)16.1 mphSnowLight Snow
5:00 PM28.4 °F24.8 °F86 %30.08 in4.0 miSouth (170°)12.7 mph17.3 mphSnowLight Snow
5:55 PM28.4 °F24.8 °F86 %30.08 in3.0 miSouth (180°)5.8 mphSnowLight Snow
6:58 PM28.4 °F24.8 °F86 %30.07 in5.0 miSouth (180°)9.2 mphSnowLight Snow
7:51 PM28.4 °F24.8 °F86 %30.08 in6.0 miSouth (170°)10.4 mphSnowLight Snow
8:51 PM28.4 °F24.8 °F86 %30.07 in7.0 miSouth (170°)15.0 mphOvercast
8:55 PM28.4 °F24.8 °F86 %30.06 in10.0 miSouth (170°)16.1 mph24.2 mphOvercast
9:15 PM28.4 °F24.8 °F86 %30.07 in10.0 miSouth (190°)13.8 mphOvercast
9:55 PM28.4 °F24.8 °F86 %30.06 in8.0 miSouth (180°)16.1 mphOvercast
10:35 PM28.4 °F24.8 °F86 %30.06 in4.0 miSouth (190°)11.5 mphOvercast
10:55 PM28.4 °F26.6 °F93 %30.06 in2.5 miSouth (170°)12.7 mphOvercast
11:15 PM26.6 °F26.6 °F100 %30.07 in2.0 miSouth (170°)13.8 mphOvercast
11:35 PM26.6 °F26.6 °F100 %30.07 in1.5 miSouth (170°)16.1 mphOvercast
Hourly data recorded from KJAC, located miles away from Teton Village, Wyoming







STORIES FROM OUR PARTNERS